Photometre #845[NE_1.6_Dp] Rhyl_MO AOT

File : 20210608_845.hum

08/06/2021,05:02:50,TEMP=14.3,BA=5.56,STAT.A,ExtBa=12.70
08/06/2021,05:06:25,TEMP=14.5,BA=5.56,STAT.D,ExtBa=12.60
08/06/2021,05:08:27,TEMP=14.9,BA=5.56,STAT.A,ExtBa=12.50
08/06/2021,05:13:07,TEMP=14.4,BA=5.52,STAT.A,ExtBa=12.60
08/06/2021,05:19:37,TEMP=14.0,BA=5.52,STAT.A,ExtBa=12.60
08/06/2021,05:27:21,TEMP=13.8,BA=5.56,STAT.A,ExtBa=12.60
08/06/2021,05:36:44,TEMP=13.7,BA=5.56,STAT.A,ExtBa=12.60
08/06/2021,05:48:23,TEMP=13.7,BA=5.56,STAT.B,ExtBa=12.60
08/06/2021,05:53:53,TEMP=13.8,BA=5.56,STAT.A,ExtBa=12.60
08/06/2021,05:59:58,TEMP=14.0,BA=5.56,STAT.A,ExtBa=12.60
08/06/2021,06:06:45,TEMP=14.0,BA=5.56,STAT.A,ExtBa=12.60
08/06/2021,06:14:24,TEMP=14.2,BA=5.60,STAT.A,ExtBa=12.60
08/06/2021,06:23:03,TEMP=14.5,BA=5.60,STAT.C,ExtBa=12.60
08/06/2021,06:32:58,TEMP=15.4,BA=5.60,STAT.A,ExtBa=12.50
08/06/2021,06:44:27,TEMP=15.1,BA=5.64,STAT.A,ExtBa=12.60
08/06/2021,06:57:25,TEMP=15.4,BA=5.64,STAT.D,ExtBa=12.60
08/06/2021,06:59:27,TEMP=15.9,BA=5.64,STAT.A,ExtBa=12.50
08/06/2021,07:03:25,TEMP=15.8,BA=5.64,STAT.D,ExtBa=12.60
08/06/2021,07:06:25,TEMP=16.1,BA=5.64,STAT.D,ExtBa=12.50
08/06/2021,07:09:25,TEMP=16.3,BA=5.64,STAT.D,ExtBa=12.50
08/06/2021,07:12:25,TEMP=16.5,BA=5.64,STAT.D,ExtBa=12.50
08/06/2021,07:14:31,TEMP=16.8,BA=5.64,STAT.A,ExtBa=12.50
08/06/2021,07:18:25,TEMP=16.8,BA=5.64,STAT.D,ExtBa=12.50
08/06/2021,07:21:25,TEMP=16.9,BA=5.64,STAT.D,ExtBa=12.60
08/06/2021,07:24:25,TEMP=17.0,BA=5.64,STAT.D,ExtBa=12.60
08/06/2021,07:27:25,TEMP=17.2,BA=5.64,STAT.D,ExtBa=12.60
08/06/2021,07:30:25,TEMP=17.3,BA=5.64,STAT.D,ExtBa=12.60
08/06/2021,07:33:25,TEMP=17.5,BA=5.64,STAT.D,ExtBa=12.60
08/06/2021,07:35:32,TEMP=17.8,BA=5.64,STAT.B,ExtBa=12.60
08/06/2021,07:45:25,TEMP=18.0,BA=5.64,STAT.D,ExtBa=12.50
08/06/2021,07:48:25,TEMP=18.0,BA=5.64,STAT.D,ExtBa=12.60
08/06/2021,07:51:25,TEMP=18.2,BA=5.64,STAT.D,ExtBa=12.70
08/06/2021,07:54:25,TEMP=18.3,BA=5.64,STAT.D,ExtBa=12.70
08/06/2021,07:57:25,TEMP=18.4,BA=5.64,STAT.D,ExtBa=12.70
08/06/2021,08:00:25,TEMP=18.6,BA=5.68,STAT.D,ExtBa=12.70
08/06/2021,08:03:25,TEMP=18.8,BA=5.68,STAT.D,ExtBa=12.70
08/06/2021,08:06:25,TEMP=18.9,BA=5.68,STAT.D,ExtBa=12.80
08/06/2021,08:09:25,TEMP=19.1,BA=5.68,STAT.D,ExtBa=12.80
08/06/2021,08:12:25,TEMP=19.2,BA=5.64,STAT.D,ExtBa=12.80
08/06/2021,08:14:31,TEMP=19.5,BA=5.64,STAT.B,ExtBa=12.80
08/06/2021,08:24:25,TEMP=19.5,BA=5.64,STAT.D,ExtBa=12.70
08/06/2021,08:27:25,TEMP=19.5,BA=5.64,STAT.D,ExtBa=12.70
08/06/2021,08:29:33,TEMP=19.8,BA=5.64,STAT.D,ExtBa=12.70
08/06/2021,08:33:25,TEMP=19.6,BA=5.68,STAT.D,ExtBa=12.80
08/06/2021,08:36:25,TEMP=19.6,BA=5.68,STAT.D,ExtBa=12.80
08/06/2021,08:39:26,TEMP=19.4,BA=5.68,STAT.D,ExtBa=12.90
08/06/2021,08:42:25,TEMP=19.3,BA=5.64,STAT.D,ExtBa=12.90
08/06/2021,08:44:29,TEMP=19.6,BA=5.64,STAT.D,ExtBa=12.80
08/06/2021,08:48:25,TEMP=19.1,BA=5.64,STAT.D,ExtBa=13.00
08/06/2021,08:51:26,TEMP=19.2,BA=5.68,STAT.D,ExtBa=13.00
08/06/2021,08:54:25,TEMP=19.4,BA=5.68,STAT.D,ExtBa=13.10
08/06/2021,08:57:26,TEMP=19.6,BA=5.68,STAT.D,ExtBa=13.20
08/06/2021,08:59:30,TEMP=20.1,BA=5.68,STAT.D,ExtBa=13.20
08/06/2021,09:03:26,TEMP=20.2,BA=5.68,STAT.D,ExtBa=13.40
08/06/2021,09:06:26,TEMP=20.6,BA=5.68,STAT.D,ExtBa=13.40
08/06/2021,09:09:26,TEMP=20.9,BA=5.68,STAT.D,ExtBa=13.30
08/06/2021,09:12:26,TEMP=21.1,BA=5.68,STAT.D,ExtBa=13.30
08/06/2021,09:14:31,TEMP=21.5,BA=5.68,STAT.F,ExtBa=13.20
08/06/2021,09:39:23,TEMP=21.3,BA=5.68,STAT.D,ExtBa=12.70
08/06/2021,09:43:22,TEMP=20.7,BA=5.68,STAT.D,ExtBa=12.90
08/06/2021,09:48:26,TEMP=20.3,BA=5.68,STAT.D,ExtBa=13.00
08/06/2021,09:51:26,TEMP=20.4,BA=5.68,STAT.D,ExtBa=13.10
08/06/2021,09:54:26,TEMP=20.5,BA=5.68,STAT.D,ExtBa=13.10
08/06/2021,09:57:26,TEMP=20.5,BA=5.68,STAT.D,ExtBa=13.20
08/06/2021,09:59:27,TEMP=20.8,BA=5.68,STAT.D,ExtBa=13.20
08/06/2021,10:03:26,TEMP=20.5,BA=5.68,STAT.D,ExtBa=13.20
08/06/2021,10:06:26,TEMP=20.6,BA=5.68,STAT.D,ExtBa=13.20
08/06/2021,10:09:26,TEMP=20.6,BA=5.68,STAT.D,ExtBa=13.20
08/06/2021,10:12:26,TEMP=20.6,BA=5.68,STAT.D,ExtBa=13.20
08/06/2021,10:14:29,TEMP=20.9,BA=5.68,STAT.F,ExtBa=13.20
08/06/2021,10:30:42,TEMP=21.5,BA=5.68,STAT.D,ExtBa=13.20
08/06/2021,10:36:26,TEMP=21.3,BA=5.68,STAT.D,ExtBa=13.50
08/06/2021,10:39:26,TEMP=21.6,BA=5.68,STAT.D,ExtBa=13.50
08/06/2021,10:42:26,TEMP=21.8,BA=5.68,STAT.D,ExtBa=13.50
08/06/2021,10:44:27,TEMP=22.2,BA=5.68,STAT.D,ExtBa=13.50
08/06/2021,10:48:26,TEMP=22.0,BA=5.68,STAT.D,ExtBa=13.60
08/06/2021,10:51:26,TEMP=22.2,BA=5.68,STAT.D,ExtBa=13.60
08/06/2021,10:54:26,TEMP=22.3,BA=5.68,STAT.D,ExtBa=13.60
08/06/2021,10:57:26,TEMP=22.5,BA=5.68,STAT.D,ExtBa=13.60
08/06/2021,10:59:27,TEMP=23.0,BA=5.68,STAT.D,ExtBa=13.60
08/06/2021,11:03:26,TEMP=22.9,BA=5.68,STAT.D,ExtBa=13.60
08/06/2021,11:06:26,TEMP=23.1,BA=5.68,STAT.D,ExtBa=13.60
08/06/2021,11:09:26,TEMP=23.3,BA=5.68,STAT.D,ExtBa=13.60
08/06/2021,11:12:26,TEMP=23.3,BA=5.68,STAT.D,ExtBa=13.60
08/06/2021,11:14:28,TEMP=23.5,BA=5.68,STAT.F,ExtBa=13.50
08/06/2021,11:30:45,TEMP=23.7,BA=5.68,STAT.D,ExtBa=13.30
08/06/2021,11:36:26,TEMP=22.9,BA=5.68,STAT.D,ExtBa=13.50
08/06/2021,11:39:26,TEMP=23.1,BA=5.68,STAT.D,ExtBa=13.60
08/06/2021,11:42:26,TEMP=23.2,BA=5.68,STAT.D,ExtBa=13.60
08/06/2021,11:44:26,TEMP=23.5,BA=5.68,STAT.D,ExtBa=13.60
08/06/2021,11:48:26,TEMP=23.3,BA=5.68,STAT.D,ExtBa=13.60
08/06/2021,11:51:26,TEMP=23.5,BA=5.68,STAT.D,ExtBa=13.60
08/06/2021,11:54:26,TEMP=23.7,BA=5.68,STAT.D,ExtBa=13.60
08/06/2021,11:57:26,TEMP=23.7,BA=5.68,STAT.D,ExtBa=13.60
08/06/2021,11:59:37,TEMP=24.0,BA=5.68,STAT.D,ExtBa=13.60
08/06/2021,12:03:26,TEMP=23.7,BA=5.68,STAT.D,ExtBa=13.70
08/06/2021,12:06:26,TEMP=23.9,BA=5.68,STAT.D,ExtBa=13.60
08/06/2021,12:09:26,TEMP=23.9,BA=5.68,STAT.D,ExtBa=13.60
08/06/2021,12:12:26,TEMP=24.0,BA=5.68,STAT.D,ExtBa=13.70
08/06/2021,12:14:27,TEMP=24.2,BA=5.68,STAT.F,ExtBa=13.60
08/06/2021,12:31:05,TEMP=24.7,BA=5.68,STAT.D,ExtBa=13.30
08/06/2021,12:36:26,TEMP=24.1,BA=5.68,STAT.D,ExtBa=13.60
08/06/2021,12:39:26,TEMP=24.1,BA=5.68,STAT.D,ExtBa=13.70
08/06/2021,12:42:26,TEMP=24.1,BA=5.64,STAT.D,ExtBa=13.70
08/06/2021,12:44:28,TEMP=24.3,BA=5.64,STAT.D,ExtBa=13.60
08/06/2021,12:48:26,TEMP=23.9,BA=5.64,STAT.D,ExtBa=13.70
08/06/2021,12:51:26,TEMP=23.9,BA=5.64,STAT.D,ExtBa=13.70
08/06/2021,12:54:26,TEMP=23.7,BA=5.64,STAT.D,ExtBa=13.70
08/06/2021,12:57:26,TEMP=23.4,BA=5.64,STAT.D,ExtBa=13.70
08/06/2021,12:59:28,TEMP=23.5,BA=5.64,STAT.D,ExtBa=13.70
08/06/2021,13:03:26,TEMP=23.0,BA=5.64,STAT.D,ExtBa=13.70
08/06/2021,13:06:26,TEMP=23.1,BA=5.64,STAT.D,ExtBa=13.70
08/06/2021,13:09:26,TEMP=23.2,BA=5.64,STAT.D,ExtBa=13.70
08/06/2021,13:12:26,TEMP=23.2,BA=5.64,STAT.D,ExtBa=13.70
08/06/2021,13:14:30,TEMP=23.5,BA=5.64,STAT.F,ExtBa=13.70
08/06/2021,13:30:26,TEMP=23.2,BA=5.64,STAT.D,ExtBa=13.50
08/06/2021,13:36:26,TEMP=22.3,BA=5.64,STAT.D,ExtBa=13.50
08/06/2021,13:39:26,TEMP=22.2,BA=5.64,STAT.D,ExtBa=13.70
08/06/2021,13:42:26,TEMP=22.2,BA=5.64,STAT.D,ExtBa=13.70
08/06/2021,13:44:26,TEMP=22.4,BA=5.64,STAT.D,ExtBa=13.70
08/06/2021,13:48:26,TEMP=22.0,BA=5.64,STAT.D,ExtBa=13.80
08/06/2021,13:51:26,TEMP=21.9,BA=5.64,STAT.D,ExtBa=13.60
08/06/2021,13:54:26,TEMP=21.8,BA=5.64,STAT.D,ExtBa=13.70
08/06/2021,13:57:26,TEMP=21.8,BA=5.64,STAT.D,ExtBa=13.60
08/06/2021,13:59:28,TEMP=22.1,BA=5.64,STAT.D,ExtBa=13.50
08/06/2021,14:03:26,TEMP=21.8,BA=5.64,STAT.D,ExtBa=13.70
08/06/2021,14:06:26,TEMP=22.0,BA=5.64,STAT.D,ExtBa=13.70
08/06/2021,14:09:26,TEMP=22.1,BA=5.64,STAT.D,ExtBa=13.70
08/06/2021,14:12:26,TEMP=22.1,BA=5.64,STAT.D,ExtBa=13.50
08/06/2021,14:14:34,TEMP=22.4,BA=5.64,STAT.F,ExtBa=13.50
08/06/2021,14:30:57,TEMP=22.5,BA=5.64,STAT.D,ExtBa=13.40
08/06/2021,14:36:26,TEMP=21.9,BA=5.64,STAT.D,ExtBa=13.60
08/06/2021,14:39:26,TEMP=22.0,BA=5.64,STAT.D,ExtBa=13.60
08/06/2021,14:42:26,TEMP=22.0,BA=5.64,STAT.D,ExtBa=13.70
08/06/2021,14:44:28,TEMP=22.4,BA=5.64,STAT.D,ExtBa=13.60
08/06/2021,14:48:26,TEMP=22.0,BA=5.64,STAT.D,ExtBa=13.70
08/06/2021,14:51:26,TEMP=22.1,BA=5.64,STAT.D,ExtBa=13.70
08/06/2021,14:54:26,TEMP=22.0,BA=5.64,STAT.D,ExtBa=13.70
08/06/2021,14:57:26,TEMP=22.0,BA=5.64,STAT.D,ExtBa=13.70
08/06/2021,14:59:30,TEMP=22.3,BA=5.64,STAT.D,ExtBa=13.60
08/06/2021,15:03:26,TEMP=22.0,BA=5.64,STAT.D,ExtBa=13.70
08/06/2021,15:06:26,TEMP=22.1,BA=5.64,STAT.D,ExtBa=13.50
08/06/2021,15:09:26,TEMP=22.2,BA=5.64,STAT.D,ExtBa=13.60
08/06/2021,15:12:26,TEMP=22.3,BA=5.64,STAT.D,ExtBa=13.60
08/06/2021,15:14:29,TEMP=22.6,BA=5.64,STAT.F,ExtBa=13.60
08/06/2021,15:38:50,TEMP=23.1,BA=5.64,STAT.D,ExtBa=13.10
08/06/2021,15:42:25,TEMP=22.5,BA=5.64,STAT.D,ExtBa=13.20
08/06/2021,15:44:29,TEMP=22.7,BA=5.64,STAT.D,ExtBa=13.20
08/06/2021,15:48:25,TEMP=22.2,BA=5.64,STAT.D,ExtBa=13.30
08/06/2021,15:51:25,TEMP=22.1,BA=5.64,STAT.D,ExtBa=13.40
08/06/2021,15:54:25,TEMP=22.1,BA=5.64,STAT.D,ExtBa=13.40
08/06/2021,15:57:25,TEMP=22.0,BA=5.64,STAT.D,ExtBa=13.40
08/06/2021,15:59:29,TEMP=22.2,BA=5.64,STAT.D,ExtBa=13.30
08/06/2021,16:03:25,TEMP=21.8,BA=5.64,STAT.D,ExtBa=13.30
08/06/2021,16:06:25,TEMP=21.7,BA=5.64,STAT.D,ExtBa=13.30
08/06/2021,16:09:25,TEMP=21.7,BA=5.64,STAT.D,ExtBa=13.30
08/06/2021,16:12:15,TEMP=21.7,BA=5.64,STAT.B,ExtBa=13.30
08/06/2021,16:21:25,TEMP=21.7,BA=5.64,STAT.D,ExtBa=12.90
08/06/2021,16:24:25,TEMP=21.8,BA=5.64,STAT.D,ExtBa=13.00
08/06/2021,16:27:25,TEMP=21.8,BA=5.64,STAT.D,ExtBa=13.00
08/06/2021,16:30:25,TEMP=21.7,BA=5.64,STAT.D,ExtBa=13.10
08/06/2021,16:33:25,TEMP=21.7,BA=5.64,STAT.D,ExtBa=13.00
08/06/2021,16:36:25,TEMP=21.6,BA=5.64,STAT.D,ExtBa=13.00
08/06/2021,16:39:25,TEMP=21.5,BA=5.64,STAT.D,ExtBa=13.10
08/06/2021,16:42:25,TEMP=21.5,BA=5.64,STAT.D,ExtBa=13.10
08/06/2021,16:45:25,TEMP=21.5,BA=5.64,STAT.D,ExtBa=13.00
08/06/2021,16:48:25,TEMP=21.6,BA=5.64,STAT.D,ExtBa=13.00
08/06/2021,16:51:25,TEMP=21.6,BA=5.64,STAT.D,ExtBa=13.00
08/06/2021,16:53:28,TEMP=21.8,BA=5.64,STAT.B,ExtBa=13.00
08/06/2021,17:03:25,TEMP=21.7,BA=5.64,STAT.D,ExtBa=12.80
08/06/2021,17:06:25,TEMP=21.9,BA=5.64,STAT.D,ExtBa=12.90
08/06/2021,17:09:25,TEMP=22.2,BA=5.64,STAT.D,ExtBa=12.90
08/06/2021,17:12:25,TEMP=22.3,BA=5.64,STAT.D,ExtBa=12.90
08/06/2021,17:14:27,TEMP=22.6,BA=5.64,STAT.A,ExtBa=12.80
08/06/2021,17:18:25,TEMP=22.4,BA=5.64,STAT.D,ExtBa=12.90
08/06/2021,17:21:25,TEMP=22.5,BA=5.64,STAT.D,ExtBa=12.80
08/06/2021,17:24:25,TEMP=22.6,BA=5.64,STAT.D,ExtBa=12.80
08/06/2021,17:27:25,TEMP=22.7,BA=5.64,STAT.D,ExtBa=12.80
08/06/2021,17:29:27,TEMP=23.1,BA=5.64,STAT.A,ExtBa=12.80
08/06/2021,17:33:25,TEMP=22.8,BA=5.64,STAT.D,ExtBa=12.80
08/06/2021,17:36:25,TEMP=22.8,BA=5.64,STAT.D,ExtBa=12.80
08/06/2021,17:39:25,TEMP=22.7,BA=5.64,STAT.D,ExtBa=12.70
08/06/2021,17:42:17,TEMP=22.5,BA=5.64,STAT.A,ExtBa=12.70
08/06/2021,17:45:25,TEMP=22.4,BA=5.64,STAT.D,ExtBa=12.70
08/06/2021,17:48:25,TEMP=22.3,BA=5.64,STAT.D,ExtBa=12.70
08/06/2021,17:51:25,TEMP=22.3,BA=5.60,STAT.D,ExtBa=12.70
08/06/2021,17:53:46,TEMP=22.5,BA=5.60,STAT.A,ExtBa=12.70
08/06/2021,17:57:25,TEMP=22.2,BA=5.60,STAT.D,ExtBa=12.70
08/06/2021,18:00:25,TEMP=22.2,BA=5.64,STAT.D,ExtBa=12.70
08/06/2021,18:03:25,TEMP=22.2,BA=5.64,STAT.D,ExtBa=12.70
08/06/2021,18:05:27,TEMP=22.4,BA=5.64,STAT.C,ExtBa=12.70
08/06/2021,18:30:21,TEMP=22.5,BA=5.60,STAT.A,ExtBa=12.60
08/06/2021,18:33:41,TEMP=22.3,BA=5.60,STAT.A,ExtBa=12.70
08/06/2021,18:35:58,TEMP=22.5,BA=5.60,STAT.A,ExtBa=12.70
08/06/2021,18:38:10,TEMP=22.4,BA=5.60,STAT.A,ExtBa=12.70
08/06/2021,18:40:23,TEMP=22.3,BA=5.60,STAT.B,ExtBa=12.70
08/06/2021,18:50:00,TEMP=21.6,BA=5.60,STAT.A,ExtBa=12.70
08/06/2021,18:54:25,TEMP=21.3,BA=5.56,STAT.D,ExtBa=12.70
08/06/2021,18:57:25,TEMP=21.3,BA=5.56,STAT.D,ExtBa=12.70
08/06/2021,18:59:28,TEMP=21.4,BA=5.56,STAT.A,ExtBa=12.70
08/06/2021,19:03:25,TEMP=21.0,BA=5.56,STAT.D,ExtBa=12.70
08/06/2021,19:06:25,TEMP=21.0,BA=5.56,STAT.D,ExtBa=12.70
08/06/2021,19:08:42,TEMP=21.2,BA=5.56,STAT.A,ExtBa=12.60
08/06/2021,19:12:25,TEMP=20.8,BA=5.56,STAT.D,ExtBa=12.70
08/06/2021,19:14:27,TEMP=21.0,BA=5.56,STAT.A,ExtBa=12.70
08/06/2021,19:18:25,TEMP=20.5,BA=5.56,STAT.D,ExtBa=12.70
08/06/2021,19:20:27,TEMP=20.7,BA=5.52,STAT.A,ExtBa=12.60
08/06/2021,19:23:56,TEMP=20.3,BA=5.52,STAT.A,ExtBa=12.70